Location: Biharia
(46.4333°N, 22.8000°E)
Time: 03:10:31
(UTC+00:00)

Cosmos 494 Rocket - Pass Details

Date: 03 June 2022
Orbit: 742 x 770 km, 74.1° (Epoch: 05 July)

Event Time Altitude Azimuth Distance (km) Brightness Sun altitude
Rises 20:46:41 0° 341° (NNW) 3,192 9.0 -17.5°
Reaches altitude 10° 20:49:06 10° 345° (NNW) 2,265 7.7 -17.7°
Maximum altitude 20:54:09 58° 65° (ENE) 864 4.2 -18.0°
Enters shadow 20:56:29 31° 132° (SE) 1,298 4.7 -18.2°
